Theta_e
338 340 341 344 345 347 347 348 348 346 350 348 349 349 348 350 352 351 354 356 355 354 353 350 350 352 352 347 348 349 351 350 350 350 350 354 356 356 362 358 364 365 368 367 370 368 367 367 371 373 367 369 369 365 359 364 370 369 372 372 359 365 359 354 351 355 355 354 365 344 348 347 357 362 347 344 344 342 348 346 345 342 344 342 346
338 339 340 343 344 347 347 347 350 345 349 348 348 351 350 350 350 351 354 356 355 353 355 353 356 352 349 347 348 347 350 350 350 349 351 351 360 361 361 358 363 365 368 371 371 367 366 370 370 371 370 370 370 366 367 364 365 367 362 371 367 359 360 351 346 353 353 350 343 339 352 352 348 341 341 340 343 350 352 339 355 348 339 343 344
337 338 339 341 343 346 346 347 348 349 348 347 349 351 351 351 354 355 354 354 355 355 359 357 359 358 352 349 350 347 349 352 349 352 352 349 353 357 362 362 364 363 367 370 369 367 369 370 368 372 369 371 369 371 369 370 367 361 368 371 362 361 357 351 363 353 352 347 357 354 347 338 349 349 345 339 342 339 340 346 345 340 339 348 354
335 336 337 340 342 346 346 347 348 349 348 347 349 350 350 356 355 356 356 355 358 359 361 356 358 361 365 362 360 351 352 356 357 355 354 351 349 350 361 363 362 359 360 363 364 366 367 365 364 374 373 375 377 375 367 362 373 367 359 359 364 356 352 351 356 358 361 352 355 347 345 333 335 345 351 345 341 339 339 338 342 340 339 343 346
335 335 337 338 341 344 345 348 348 348 347 348 349 349 350 352 354 357 357 356 357 360 361 362 363 362 364 362 360 360 357 356 357 350 351 353 350 353 355 360 362 360 361 359 362 368 369 368 367 367 372 371 368 368 366 357 358 360 369 375 364 362 353 355 360 353 350 362 362 360 350 342 340 338 335 351 344 339 352 339 345 340 343 347 342
337 335 337 338 340 344 346 347 347 347 347 348 350 349 352 353 354 359 358 357 354 358 362 364 362 363 362 359 357 354 353 350 349 347 345 345 345 351 357 355 356 360 360 363 365 368 366 369 368 370 367 368 375 370 365 367 368 359 363 364 362 367 371 361 353 358 354 361 361 364 362 352 347 345 342 343 351 353 343 340 352 340 343 356 357
337 337 337 337 340 343 345 346 347 347 348 349 350 349 353 354 355 356 358 359 356 359 363 365 361 362 359 354 354 353 354 354 357 350 349 346 348 352 357 356 359 358 359 362 364 366 369 374 371 370 369 367 368 368 367 355 356 355 364 364 368 369 372 368 361 353 359 355 345 347 346 347 350 348 349 348 340 356 353 345 343 350 343 343 346
335 337 337 338 341 342 343 346 347 349 349 348 349 349 355 358 357 359 359 360 358 358 362 364 362 362 360 356 354 354 349 354 357 355 356 360 354 350 353 354 358 361 360 367 366 365 369 370 373 370 370 365 368 366 364 359 360 367 371 370 373 378 370 365 361 356 361 359 356 353 349 347 355 350 347 346 348 341 345 347 343 344 352 355 351
336 336 337 337 339 341 344 345 347 348 347 347 349 349 354 356 359 360 359 362 360 359 362 362 363 362 359 353 357 355 353 353 358 358 357 357 357 355 356 353 360 364 365 361 368 367 365 368 371 370 370 369 370 365 362 359 361 366 372 375 374 371 365 373 376 363 354 357 357 361 357 356 346 347 349 352 353 343 342 342 351 357 349 351 360
336 336 337 338 339 341 343 346 346 347 348 350 350 350 353 356 358 360 358 360 361 360 362 363 362 363 360 359 355 357 354 356 356 359 362 361 361 363 364 366 354 357 361 366 368 367 368 369 368 362 365 360 363 364 363 366 368 370 371 364 372 371 374 367 365 369 366 362 364 362 372 364 359 354 345 351 358 354 345 340 344 353 351 360 357
336 336 337 338 340 341 342 343 345 347 349 348 350 350 352 356 357 358 360 360 362 360 362 361 360 360 359 360 357 355 355 356 355 358 362 360 359 356 359 364 361 355 354 362 362 361 363 368 360 360 361 366 370 365 368 360 358 360 359 366 370 369 368 371 365 368 361 361 352 358 360 348 352 352 356 350 347 349 347 344 343 342 340 339 356
340 344 336 338 341 341 341 342 343 345 347 348 350 350 354 356 357 359 361 362 362 358 361 357 356 359 360 359 358 357 357 349 353 354 356 357 356 358 362 362 361 359 360 355 356 357 362 365 365 363 369 368 366 367 363 362 363 362 364 372 371 369 371 373 363 363 356 363 359 350 352 344 348 354 347 352 353 356 346 347 344 347 345 343 344
344 341 342 337 337 338 339 342 347 348 347 347 348 351 352 355 356 357 360 361 362 360 359 360 358 358 359 357 359 360 359 359 355 355 355 356 356 356 361 361 361 361 358 351 351 353 360 364 363 368 368 367 368 374 373 366 371 367 365 362 367 370 372 368 370 362 358 360 356 354 351 348 348 350 350 345 347 353 352 343 349 344 347 345 348
344 340 339 341 339 339 343 346 345 343 345 345 349 350 354 354 357 356 359 361 363 361 359 359 358 360 361 359 359 361 359 358 356 352 351 357 358 356 351 349 356 352 349 356 351 351 353 358 364 364 372 372 374 374 372 371 372 370 367 369 360 371 373 370 372 362 363 356 356 353 351 350 348 350 348 347 345 344 345 345 346 350 343 343 353
345 343 342 341 341 342 341 345 342 342 343 347 349 354 357 358 358 359 359 359 362 362 360 359 357 359 361 359 361 359 356 357 357 356 356 354 351 350 355 351 351 352 354 358 360 358 355 358 362 360 365 370 372 371 364 370 374 372 370 371 369 368 371 369 366 359 355 353 358 364 359 353 353 359 348 344 346 344 351 352 348 350 342 344 348
345 345 344 344 342 342 341 344 343 343 349 345 349 353 352 356 358 359 359 358 359 362 361 359 359 358 362 362 361 361 362 357 362 362 361 355 355 353 356 361 354 356 356 360 355 357 360 358 361 357 365 363 366 368 369 366 369 367 372 368 367 360 363 364 366 357 355 355 353 358 361 351 355 350 349 348 348 357 356 356 358 355 348 346 351
346 345 344 342 341 346 341 342 341 342 343 344 352 350 354 359 358 358 360 358 358 361 358 360 360 359 360 359 358 359 355 354 352 352 350 352 356 354 351 350 352 361 352 353 354 359 362 363 356 353 362 364 364 367 365 368 372 369 364 370 367 362 368 368 365 365 365 356 354 354 363 365 362 363 357 353 358 370 358 362 363 359 357 353 350
345 347 349 348 347 345 344 342 343 345 342 344 350 351 353 355 357 357 359 358 357 357 357 357 359 357 359 358 359 359 354 352 351 351 350 353 355 355 352 352 349 349 350 348 353 355 358 362 362 363 360 357 359 359 362 364 369 368 366 371 366 370 368 371 370 365 362 362 358 355 355 355 363 359 354 352 363 368 361 353 360 362 364 358 355
342 345 349 351 348 345 346 343 344 350 351 346 346 350 352 351 356 357 358 358 357 357 356 357 357 356 356 357 357 357 356 354 352 354 353 350 349 349 350 352 349 353 357 373 358 353 358 358 364 359 361 362 362 359 365 365 366 365 363 363 365 370 370 369 371 367 361 360 361 357 360 358 359 358 360 355 357 362 363 365 362 369 363 363 360
341 344 347 349 350 350 347 347 350 349 349 350 349 351 351 350 354 356 359 360 357 356 356 355 355 355 353 356 359 361 361 357 355 354 349 348 349 348 350 348 350 350 350 354 355 354 354 355 354 353 352 352 356 356 356 362 364 363 361 357 358 366 365 365 362 359 355 357 363 361 364 363 364 362 359 358 358 361 359 358 362 363 366 362 365
340 343 345 347 347 348 350 353 354 351 351 355 353 353 350 350 351 354 360 358 356 354 355 356 356 355 355 354 354 357 357 356 354 352 350 350 349 351 349 349 352 351 351 349 350 353 359 355 355 357 352 354 359 359 358 360 363 365 365 366 366 370 367 364 367 365 361 364 366 363 364 365 369 362 361 356 354 354 356 356 357 363 359 363 363
338 338 344 343 346 348 350 351 354 352 349 355 355 353 356 355 355 356 361 357 355 353 354 358 356 355 352 352 353 354 356 356 354 353 352 351 351 350 352 353 349 351 352 349 351 348 352 354 353 355 357 354 360 361 355 355 359 362 361 357 358 364 369 367 368 368 367 362 363 363 363 360 366 362 358 355 353 352 350 349 359 355 365 361 366
339 339 340 344 346 347 347 348 349 353 354 353 354 356 357 355 354 353 349 350 354 350 352 357 356 355 354 353 355 355 355 354 353 352 352 352 353 352 353 351 349 349 351 351 350 350 355 356 355 356 361 357 362 358 355 357 358 361 360 358 356 359 359 359 361 364 362 362 359 361 358 358 356 356 357 354 353 353 353 359 356 355 354 355 361
337 336 341 342 342 344 347 347 349 349 349 351 355 354 355 357 354 357 354 354 356 354 354 360 358 357 352 354 355 356 355 354 351 351 350 351 352 353 355 352 351 352 350 353 352 353 356 361 356 356 359 360 359 357 355 355 358 360 360 362 363 362 359 358 358 358 357 360 360 362 359 358 358 357 361 359 358 355 356 361 358 362 365 360 364
337 336 339 341 343 341 342 346 349 350 351 352 352 351 354 351 353 353 355 354 356 359 358 353 356 355 350 349 350 353 354 357 356 353 351 350 349 350 353 354 354 352 352 353 357 358 359 360 353 354 355 357 357 357 358 354 356 357 358 357 359 362 361 361 360 363 360 363 362 360 360 361 360 360 358 355 353 356 356 355 354 360 363 360 361
336 336 339 341 343 343 343 345 347 349 348 350 352 353 349 349 351 352 356 356 359 358 354 356 357 357 354 354 354 351 352 350 351 356 354 351 350 348 348 350 353 355 356 353 355 355 355 357 358 357 356 358 360 360 361 359 355 355 357 356 358 360 359 362 362 359 360 361 357 362 361 361 358 358 357 358 361 359 355 355 353 356 362 362 361
333 336 340 341 341 342 342 342 344 344 347 349 350 350 351 353 351 355 361 361 361 360 359 362 360 355 353 352 353 353 354 355 355 352 354 355 352 350 349 347 350 352 352 351 351 354 359 357 360 357 356 359 360 357 361 362 359 359 358 357 355 358 360 362 360 360 360 359 359 359 362 361 360 361 358 357 359 357 356 359 359 360 359 360 355
334 333 333 336 337 340 341 342 343 344 345 347 347 350 351 352 352 355 356 358 360 359 359 359 360 360 359 358 358 361 357 357 359 358 354 351 351 351 351 355 353 349 349 350 351 350 351 359 357 358 361 364 362 360 364 364 361 358 357 356 357 355 356 358 359 360 358 357 358 358 358 359 359 361 361 360 358 360 364 360 360 366 363 364 361
331 334 335 334 335 337 339 340 341 342 343 346 346 347 350 349 351 353 353 353 357 357 358 359 359 358 358 359 359 359 359 358 358 357 355 355 353 353 355 354 354 359 351 350 353 352 352 351 358 361 361 360 358 357 357 358 363 360 360 356 355 354 355 355 357 355 356 357 357 357 355 356 364 364 361 365 361 363 360 363 366 364 361 359 360
328 330 332 333 335 336 337 338 339 340 341 343 345 347 347 348 349 351 350 351 353 353 352 352 355 358 359 359 358 358 358 358 358 359 358 357 354 354 354 356 356 358 364 363 363 360 355 354 356 357 357 356 356 358 357 350 356 362 360 357 355 358 359 359 363 362 358 358 358 357 359 361 361 362 362 363 362 363 362 360 363 359 359 360 360
329 330 331 333 333 334 335 336 338 339 340 342 344 345 347 348 349 351 352 353 352 351 353 352 353 355 357 358 358 358 357 356 356 356 358 357 357 358 359 356 354 355 359 365 360 358 355 354 352 351 353 357 355 356 354 339 343 355 361 361 358 360 360 358 358 356 360 359 360 357 356 358 361 361 360 365 361 360 359 360 361 363 364 362 358
329 331 332 332 332 333 334 334 336 338 339 341 342 344 345 347 348 349 351 352 352 352 352 352 353 355 355 355 355 356 355 354 355 355 355 354 354 354 357 357 356 355 359 354 356 357 361 356 355 354 353 352 354 357 339 340 344 345 356 362 358 357 359 357 354 353 354 356 357 359 358 357 357 360 361 363 360 358 358 359 360 360 362 364 363
327 330 332 332 331 333 334 335 336 337 339 341 343 343 343 345 346 348 350 350 349 350 351 351 349 349 350 352 353 353 352 352 351 352 353 354 354 352 350 349 350 353 352 352 358 358 358 357 356 359 355 353 354 345 335 342 342 343 346 359 358 358 356 358 357 354 354 359 360 362 360 360 362 364 365 363 363 362 362 363 362 361 361 361 351
329 330 333 333 332 334 335 336 337 339 340 343 343 343 343 345 346 347 346 346 346 345 345 345 346 346 346 350 351 352 351 351 351 351 352 351 350 349 350 353 353 352 353 355 356 355 359 362 363 361 360 357 357 347 337 339 340 340 342 350 358 357 358 358 355 353 352 355 359 360 362 363 363 366 367 364 362 362 362 362 363 363 362 363 362
328 329 331 331 332 333 335 336 336 338 340 341 341 342 343 343 344 343 344 343 343 342 342 342 342 343 345 349 351 352 350 350 349 350 350 351 351 350 350 351 351 351 354 352 350 352 356 358 358 358 358 356 348 329 333 335 334 334 338 350 358 358 360 359 359 359 359 359 361 362 362 362 365 365 367 366 362 361 362 361 361 359 359 358 359
327 328 332 331 331 332 334 335 337 337 339 340 341 343 341 341 342 341 342 341 341 340 340 340 339 340 341 343 345 346 347 346 347 347 348 348 348 349 348 349 350 352 353 354 353 355 356 358 359 357 357 348 337 324 325 327 327 331 337 352 357 359 358 359 361 363 361 364 364 361 363 364 358 359 362 353 358 360 357 357 358 358 358 359 357
326 328 332 334 333 332 334 335 336 336 337 338 340 341 340 339 339 339 339 338 337 336 336 337 337 338 339 340 342 342 342 342 342 342 342 342 343 344 346 348 347 348 347 349 351 352 356 356 356 357 353 346 340 325 319 320 322 325 340 354 357 358 359 358 359 361 361 359 357 356 355 355 351 351 341 329 338 353 355 355 355 354 355 355 354
326 327 334 334 333 332 332 332 333 333 334 337 339 340 338 337 336 337 337 335 334 332 334 336 337 338 339 339 340 340 339 339 339 339 340 342 345 347 347 349 346 346 346 348 349 349 352 355 353 353 346 346 333 323 317 316 317 321 340 353 356 359 356 355 353 354 355 355 354 355 353 352 350 349 325 325 329 347 350 351 351 351 351 351 352
327 328 326 333 332 333 333 332 331 330 332 333 334 336 333 332 333 333 335 333 333 333 335 334 336 338 338 338 338 338 338 338 338 339 341 341 342 343 346 347 346 346 345 345 347 346 349 350 352 350 351 341 332 325 314 314 315 317 332 350 355 354 350 351 352 354 355 355 351 350 352 346 340 327 319 320 325 339 345 347 349 349 348 348 350
331 322 324 329 335 334 329 327 327 329 331 331 329 329 330 328 327 328 329 329 330 332 334 335 336 338 338 338 337 337 337 338 339 341 342 343 344 345 344 345 345 345 341 337 334 332 334 335 335 338 336 331 327 323 319 313 313 315 320 341 349 349 346 347 351 352 352 355 352 350 344 325 321 319 315 315 317 321 335 340 342 343 345 346 349
327 321 327 323 325 326 326 326 330 332 330 330 330 328 328 330 329 328 327 326 330 333 334 336 338 338 338 338 338 337 337 339 340 340 341 341 342 343 343 343 344 345 339 334 332 332 331 328 328 328 329 330 329 326 321 312 312 313 316 326 331 328 327 333 340 347 350 351 349 349 339 327 318 317 315 312 312 316 324 333 337 338 341 338 335
323 324 325 323 322 324 326 326 328 328 329 330 331 330 330 330 329 327 328 328 329 333 333 334 335 337 338 338 338 338 338 338 339 340 339 338 341 342 341 341 340 339 337 335 334 332 329 326 325 326 326 326 328 327 326 317 313 312 312 316 322 323 324 331 331 336 339 343 348 347 336 327 316 314 311 309 308 312 316 330 338 324 319 322 332
319 321 318 317 318 320 323 325 327 329 329 330 329 329 329 329 328 329 329 331 331 331 332 331 333 333 336 337 338 338 337 338 338 338 337 336 338 339 339 339 337 336 334 332 332 330 328 326 325 325 325 325 324 324 322 324 317 312 311 313 315 319 318 327 327 329 332 333 335 336 335 330 314 309 307 308 309 310 321 333 318 315 317 319 328
319 319 317 318 317 317 319 322 326 329 331 332 331 329 328 328 328 332 331 332 332 332 333 332 330 331 332 334 335 335 336 337 337 338 337 336 336 336 336 336 336 334 333 332 331 330 328 326 325 324 324 324 325 324 324 324 325 318 313 312 313 314 317 323 326 327 326 328 330 332 331 314 309 306 307 309 311 315 325 315 312 315 319 326 332
323 321 325 323 319 319 318 319 322 325 329 332 332 330 330 329 331 336 335 334 333 331 329 326 326 326 327 327 331 334 335 335 333 332 332 332 333 333 333 335 335 334 333 331 330 329 328 327 326 324 324 324 324 325 325 326 325 324 319 315 316 316 318 319 328 325 327 329 325 315 311 311 312 311 311 314 318 327 325 322 320 323 339 338 337
321 322 324 325 325 321 319 319 321 323 325 330 331 331 331 331 332 334 335 335 333 333 333 332 328 326 323 321 322 321 323 326 329 330 329 327 325 324 325 326 328 332 332 331 330 328 328 327 326 326 325 325 326 326 325 325 325 326 325 320 319 321 328 329 331 332 330 323 319 317 318 318 321 325 335 339 339 338 331 331 333 338 338 339 339
322 324 325 324 323 322 321 321 321 322 323 324 326 329 332 335 335 331 331 336 336 333 332 331 331 326 326 326 322 319 319 320 321 322 325 327 327 323 321 321 320 322 327 327 326 325 324 323 325 326 326 326 326 325 323 322 322 321 321 322 324 325 326 326 327 327 326 325 327 328 327 322 320 322 324 326 327 334 338 335 335 335 336 338 337
327 327 328 327 326 326 324 323 323 323 324 323 323 325 329 332 332 333 333 333 334 332 328 328 326 326 326 326 325 325 323 319 320 320 321 322 323 322 319 317 316 316 318 322 325 325 323 321 320 323 325 326 325 324 320 316 317 316 316 316 319 321 321 320 321 324 321 322 325 328 328 337 341 342 342 341 338 336 334 332 332 333 334 335 335
326 327 328 328 328 328 328 327 327 327 325 325 324 324 326 329 330 333 335 334 332 329 331 327 328 330 332 331 328 328 323 321 321 322 320 319 319 323 323 320 316 313 313 315 321 322 324 325 321 320 321 321 321 320 318 309 311 305 307 310 315 316 315 315 319 313 314 319 324 329 333 338 339 339 339 336 334 333 331 330 331 331 331 332 332
327 328 328 328 329 328 328 328 329 330 329 329 328 328 329 327 328 330 332 331 331 331 328 323 324 324 324 325 326 322 326 328 322 320 319 318 311 301 308 323 319 310 304 301 305 318 317 321 326 324 321 318 317 318 306 298 296 295 296 297 299 297 297 303 307 306 310 317 324 330 334 333 333 332 330 330 330 329 328 327 328 327 329 328 328
327 327 327 328 328 328 328 328 329 330 329 328 329 330 331 330 332 331 330 331 331 330 327 323 326 323 324 327 324 326 327 330 330 326 324 322 319 316 297 299 309 309 302 295 295 298 302 305 319 324 318 308 309 303 296 295 295 296 295 295 295 295 296 297 300 311 323 326 331 330 330 330 329 328 328 328 329 328 327 326 326 327 327 326 325
Wind_Speed
11 11 12 12 12 11 10 10 9 11 9 11 10 10 10 9 9 8 6 8 7 6 6 6 6 5 5 7 7 6 6 8 10 8 8 7 9 8 6 7 5 4 3 3 2 3 1 2 1 2 3 2 2 2 3 4 2 2 2 2 3 3 3 3 2 1 3 2 1 4 4 5 1 2 4 6 3 3 3 3 2 4 6 8 5
13 11 13 12 11 13 10 9 10 11 10 11 10 10 10 11 10 9 7 7 7 7 5 5 5 4 5 6 6 7 5 4 5 7 7 10 7 7 6 7 5 5 3 3 2 3 3 1 1 2 0 1 2 5 3 2 1 2 4 1 0 3 3 2 3 2 3 0 2 2 2 3 5 5 7 5 5 2 1 6 3 1 3 8 5
14 13 13 12 13 13 11 10 9 11 12 12 11 11 11 10 7 7 7 7 6 6 4 4 3 4 4 5 5 6 6 4 6 8 7 10 9 6 5 6 5 5 5 3 3 3 2 1 1 3 3 2 1 1 2 3 3 4 2 0 2 3 3 6 1 3 1 3 1 2 1 3 2 2 3 5 5 4 5 3 2 4 10 4 3
15 15 14 13 13 12 11 10 11 10 11 11 11 11 10 8 8 7 7 7 5 5 4 6 5 4 4 4 3 5 4 4 5 8 5 9 9 8 5 6 6 6 6 6 4 5 4 2 2 2 3 2 2 0 3 4 3 2 2 1 2 3 3 2 5 1 1 3 3 2 2 3 1 2 1 4 8 4 5 7 6 3 3 3 6
13 15 14 14 14 13 12 11 11 11 11 11 11 11 9 12 10 8 7 7 5 6 5 5 4 3 4 5 1 4 6 3 3 5 6 6 8 7 7 6 5 5 6 6 4 4 2 4 1 5 3 3 4 3 2 4 4 3 2 1 0 2 2 2 2 6 8 2 2 2 3 3 2 2 5 4 4 4 2 3 4 5 3 3 5
12 13 15 14 13 13 12 12 12 12 11 11 11 12 11 11 11 8 7 6 8 8 5 4 4 5 4 5 5 5 6 7 5 7 7 7 9 8 8 8 7 5 5 4 5 4 5 5 6 2 2 2 1 1 3 2 1 1 2 2 2 1 1 3 3 4 4 5 2 4 4 2 3 2 2 2 3 1 2 5 2 4 4 2 3
12 12 14 14 14 13 12 12 12 12 12 11 12 12 13 12 12 10 7 6 8 8 5 5 5 4 5 7 5 5 5 5 4 6 5 6 6 8 5 6 5 5 5 4 6 4 3 3 1 3 2 3 2 3 3 3 2 1 2 3 2 2 2 1 3 2 6 4 7 9 5 4 4 4 1 1 3 3 4 3 2 1 2 2 3
12 11 13 14 13 14 14 13 12 12 11 12 12 11 12 10 11 9 7 7 7 7 7 6 5 5 5 5 5 5 6 4 3 4 4 2 5 7 5 6 6 5 4 3 5 3 3 1 3 2 3 2 3 2 3 1 2 1 2 2 2 3 2 2 2 2 2 4 4 5 7 4 2 2 2 2 2 1 4 2 2 3 2 1 2
10 11 12 13 14 14 13 13 12 10 10 12 9 11 12 12 10 9 8 7 8 9 8 7 6 6 5 5 4 4 4 5 3 3 5 3 3 5 6 6 5 4 3 4 3 4 5 5 3 2 2 2 1 3 3 6 5 2 3 2 1 2 4 1 1 3 3 3 2 2 2 3 4 2 5 2 1 0 3 4 1 1 2 2 1
10 11 12 11 14 13 13 12 14 14 11 6 11 12 13 11 11 10 9 7 8 10 8 8 8 6 6 5 6 5 4 5 4 3 4 4 4 3 2 3 6 5 5 4 3 3 4 3 3 4 3 3 3 2 2 1 2 2 1 2 2 2 3 3 3 2 1 2 1 3 2 2 1 1 3 2 2 1 2 3 2 1 3 3 2
8 12 11 13 11 12 14 13 12 12 11 13 11 9 12 12 12 10 10 7 8 10 9 9 7 7 6 5 7 6 6 6 5 4 4 3 5 5 5 4 3 6 6 5 5 5 4 3 4 5 4 3 2 2 2 1 2 3 5 4 2 2 2 2 3 2 4 4 4 5 4 2 3 3 4 3 2 0 1 4 5 3 2 4 2
4 6 10 12 10 12 11 12 13 13 11 10 8 10 9 12 11 11 10 9 8 10 9 9 8 7 7 6 6 6 5 7 6 6 5 5 5 5 5 5 3 4 4 5 6 7 4 3 4 3 2 2 3 2 3 3 2 2 2 4 2 2 3 2 3 4 5 3 3 5 4 4 2 1 4 3 4 1 0 3 4 3 4 4 4
3 3 7 9 11 12 14 10 7 10 10 12 12 9 11 12 13 12 11 9 9 10 9 9 8 8 7 7 5 5 4 6 6 6 6 6 6 5 5 5 5 4 4 5 7 8 5 5 4 3 3 3 3 1 1 2 1 2 3 3 2 3 2 3 3 4 4 3 4 4 4 5 3 3 3 3 4 5 1 2 3 3 3 3 3
4 5 6 7 9 10 8 6 8 10 12 13 12 10 9 11 12 13 12 10 9 10 10 9 9 7 7 7 6 5 6 5 6 7 8 6 6 5 7 7 6 6 6 4 5 7 6 7 5 4 3 3 2 2 2 2 1 2 1 1 4 2 2 1 2 4 3 5 4 4 2 5 5 4 4 5 4 6 3 4 3 2 3 3 2
4 4 6 9 7 10 10 9 11 10 13 14 12 10 8 9 12 11 12 11 11 10 9 10 8 8 7 7 7 6 7 6 5 6 6 7 8 7 5 6 7 6 6 5 4 5 5 6 7 5 4 3 3 3 4 3 2 2 2 3 3 3 1 2 2 5 6 5 4 2 3 3 5 3 5 5 4 5 8 6 6 3 2 2 3
3 3 4 7 9 7 8 7 6 7 8 11 13 10 11 10 12 12 13 13 12 11 10 10 9 8 7 8 8 7 6 7 5 5 5 6 6 6 6 5 5 6 6 4 7 4 3 5 8 7 5 6 5 4 4 4 5 4 3 3 3 4 3 3 3 5 5 5 5 3 3 5 3 4 5 5 4 2 4 5 4 2 2 3 1
2 3 4 7 6 8 8 10 11 13 10 10 10 12 11 12 13 13 13 13 13 11 12 10 9 8 8 9 9 9 9 10 9 10 10 7 6 6 6 7 6 4 8 6 6 5 4 3 5 8 7 5 6 5 5 4 3 3 5 3 3 5 3 2 2 2 3 5 5 6 2 3 2 2 3 3 4 1 1 1 2 1 3 1 1
2 1 4 5 7 4 10 7 10 12 12 9 16 14 13 12 13 15 14 13 13 13 13 12 10 11 9 10 9 9 10 11 10 10 9 7 6 6 6 7 7 7 6 8 6 8 5 6 3 4 6 7 6 7 6 5 4 4 4 4 4 4 3 2 2 3 4 3 4 5 4 3 2 2 4 5 2 2 2 4 3 4 3 3 3
1 2 3 3 3 6 4 4 8 11 6 6 12 13 12 12 13 13 14 14 14 12 12 10 12 10 10 11 12 11 10 10 8 7 8 8 10 8 8 6 8 6 5 2 6 7 7 6 4 5 4 5 7 6 5 5 5 5 5 5 5 4 4 3 3 4 5 4 4 4 3 3 3 3 3 5 3 2 3 2 3 4 5 4 4
3 1 3 3 3 1 2 5 5 3 4 1 2 6 5 5 12 12 10 11 12 13 12 11 12 11 10 10 10 8 8 8 7 7 9 10 9 9 9 9 7 7 6 6 4 5 8 9 9 8 8 8 7 7 7 6 6 6 6 7 6 7 6 5 5 5 6 5 4 4 3 3 3 3 4 4 4 3 4 4 2 2 4 4 5
3 4 2 2 4 6 6 6 4 4 2 5 5 6 8 2 9 7 8 11 13 12 11 10 10 10 10 11 12 11 12 10 11 11 10 9 9 8 9 9 6 7 7 8 7 6 5 8 9 8 9 7 6 6 6 5 6 6 5 4 5 2 5 5 4 5 6 4 3 4 3 3 3 3 4 4 5 5 4 4 4 4 4 4 3
3 5 3 6 7 6 7 7 7 3 2 3 2 3 3 2 2 6 8 9 10 9 9 8 8 8 10 10 12 12 11 10 12 12 12 11 11 9 8 7 10 7 7 8 8 10 8 6 7 8 8 7 6 7 8 6 6 6 7 7 7 5 3 4 4 3 3 5 5 4 4 4 3 5 6 7 5 6 5 5 2 3 1 1 3
7 6 7 6 6 7 6 7 8 8 3 4 3 2 2 1 4 4 6 12 11 8 7 7 8 7 9 9 9 10 10 12 13 12 12 12 11 11 9 10 10 9 9 8 8 10 7 7 7 5 6 7 5 8 7 5 5 6 6 7 7 6 6 6 7 6 6 5 6 5 6 6 7 6 5 6 6 5 4 2 4 4 4 2 2
5 3 1 2 7 10 8 5 6 6 8 4 3 2 3 5 6 4 8 5 4 6 12 5 2 3 3 6 8 7 9 11 13 12 13 12 11 10 9 11 11 10 11 9 9 8 7 6 8 7 6 5 5 4 5 7 6 5 5 6 6 6 5 6 6 6 6 4 4 4 5 5 5 5 4 4 4 6 4 3 3 2 3 4 2
3 2 1 2 5 5 3 5 5 5 5 6 7 4 4 5 4 5 2 4 5 7 2 3 2 2 3 7 13 11 8 9 10 10 11 11 11 11 9 10 10 10 10 9 7 7 6 7 9 8 7 6 6 5 5 6 6 7 7 7 7 6 6 5 5 4 5 4 3 6 5 4 4 3 5 6 8 5 4 7 8 6 3 3 3
7 6 5 5 3 4 2 3 3 4 4 6 7 6 4 7 5 5 4 3 4 4 5 5 2 4 3 4 3 5 10 7 11 14 12 11 11 11 11 10 10 8 6 8 7 7 8 7 7 6 7 7 6 5 5 6 7 7 7 8 7 6 7 6 5 6 5 5 5 3 3 3 4 4 3 2 3 5 7 2 2 4 4 4 2
10 9 6 6 7 7 5 3 5 4 5 5 5 5 7 5 7 6 3 3 5 4 2 2 2 1 2 4 6 10 8 5 3 3 1 4 9 19 16 11 9 9 11 11 11 8 6 5 4 7 7 6 6 7 6 5 7 7 7 6 8 7 7 6 7 7 7 7 7 6 4 3 4 4 3 1 3 4 2 3 2 1 2 3 3
9 9 9 8 8 7 7 6 5 3 3 3 3 4 5 5 6 5 5 4 3 4 4 3 2 2 1 3 3 2 3 2 3 3 1 2 1 5 13 16 10 8 10 10 9 10 8 6 4 5 5 3 4 5 4 5 6 7 7 7 6 6 7 7 7 7 7 6 5 7 6 3 4 3 1 1 1 3 3 1 0 2 1 2 0
9 7 6 5 7 6 7 7 6 6 6 4 1 2 1 1 1 2 4 6 6 5 4 3 2 1 1 1 1 2 1 2 3 2 2 2 2 2 5 12 18 11 7 6 5 6 7 7 7 6 5 5 6 7 6 4 4 7 5 6 8 8 7 7 6 5 6 7 6 5 1 3 1 3 4 3 3 1 1 1 2 1 1 2 1
9 8 8 7 7 6 7 6 7 7 6 5 5 4 2 2 2 2 3 4 5 4 4 3 3 1 1 1 1 2 2 1 2 2 2 3 1 1 1 3 7 15 6 1 1 1 2 1 3 4 6 6 1 4 4 9 9 1 3 3 6 8 6 6 4 2 2 3 2 3 2 5 2 4 3 3 5 8 6 4 3 3 3 3 4
8 8 7 7 7 7 6 6 6 7 6 5 5 5 4 3 1 2 3 3 2 2 1 1 2 3 2 3 2 3 4 4 2 1 2 1 1 1 2 4 4 8 11 10 2 2 2 3 5 5 4 3 3 3 3 6 6 4 4 5 3 4 2 1 3 3 6 3 3 0 4 6 6 6 5 6 3 2 3 3 5 6 5 5 5
9 8 8 8 8 8 7 7 7 7 6 5 5 6 6 5 5 5 4 3 4 3 4 1 1 3 2 3 3 3 3 5 5 5 3 2 0 1 2 2 4 6 3 7 10 5 3 4 4 6 1 4 2 4 7 6 2 3 4 1 4 5 2 3 1 1 2 4 4 5 6 4 5 3 3 3 3 5 6 7 8 8 9 9 6
5 7 7 7 8 7 7 7 6 5 5 6 5 5 6 6 7 6 5 6 7 6 5 4 4 5 5 4 4 3 4 4 4 5 4 3 2 1 0 1 4 5 7 8 8 8 5 5 5 3 3 6 4 5 9 8 8 6 6 5 3 5 1 1 2 3 3 4 5 4 4 3 2 5 4 3 2 3 5 7 7 8 8 8 8
6 5 4 5 6 7 7 8 7 7 7 6 7 7 7 7 7 7 7 7 8 8 7 6 6 5 4 5 4 4 4 3 4 3 4 4 4 4 4 3 4 5 6 6 6 10 10 6 4 2 0 2 4 4 3 4 4 4 2 2 3 3 5 5 4 4 4 5 5 5 4 4 3 3 4 5 4 4 3 3 4 3 3 5 6
7 5 6 6 6 7 8 8 8 8 8 8 8 8 8 8 8 8 7 7 8 8 8 7 6 6 6 6 5 3 3 4 4 4 4 4 3 2 2 3 3 4 4 3 4 7 8 7 5 3 2 2 5 7 1 1 2 3 1 3 3 3 3 3 3 5 6 6 4 5 5 5 2 2 3 3 4 4 4 4 4 4 4 4 4
7 4 4 6 7 8 8 7 6 7 8 8 7 7 8 8 8 8 8 8 8 8 9 8 8 8 7 7 8 8 7 6 6 5 6 5 5 4 2 3 3 4 3 4 6 7 6 6 5 3 3 6 4 8 6 6 5 3 2 3 4 3 4 4 3 3 4 3 3 3 4 2 6 7 6 7 3 2 4 5 5 6 6 5 5
7 6 4 4 4 5 6 8 9 9 9 8 8 9 9 8 8 8 9 8 9 9 9 9 8 5 4 5 6 7 7 7 6 5 5 5 5 5 3 1 1 2 4 5 7 6 5 6 6 5 1 4 3 8 9 8 7 5 1 1 3 3 3 4 4 2 2 4 5 6 7 4 4 5 6 7 7 4 3 5 6 7 6 6 5
6 6 2 2 1 2 5 7 10 12 10 7 5 6 7 8 9 8 7 8 8 9 8 8 7 6 7 7 8 7 7 7 7 7 7 5 5 4 4 4 3 3 4 5 5 9 8 6 6 3 4 4 6 8 10 11 11 11 5 1 1 2 2 2 3 3 3 2 4 8 7 5 6 4 6 7 7 4 3 4 6 7 7 6 5
6 6 4 4 5 5 6 10 12 11 10 9 8 7 8 9 7 6 6 7 7 7 6 5 6 7 7 7 7 7 7 7 7 7 7 8 7 5 4 3 4 4 5 7 8 6 8 6 7 2 10 8 6 7 11 11 12 13 8 2 3 2 1 1 1 1 2 2 1 3 10 11 7 4 6 7 9 7 4 5 6 7 7 8 6
4 5 2 3 10 9 5 11 11 10 11 9 8 8 8 8 9 7 8 8 7 7 6 5 6 7 6 6 6 7 8 7 8 8 8 8 7 7 6 5 6 6 9 9 9 14 12 8 11 13 12 9 7 7 10 13 14 14 13 6 5 5 4 5 4 3 2 2 5 4 6 6 6 7 6 6 5 5 3 4 5 6 7 7 5
5 2 2 3 7 7 8 9 7 7 9 8 7 8 8 7 8 8 9 9 7 6 6 6 6 7 7 6 5 6 8 9 9 8 8 8 7 8 9 9 8 7 9 9 10 9 7 10 11 11 10 10 10 8 10 15 14 15 16 11 6 7 6 4 5 4 3 0 2 3 5 6 6 5 5 5 4 4 3 3 3 5 6 8 9
3 2 4 3 5 6 8 9 9 8 9 8 8 8 8 7 7 9 9 7 6 5 5 7 7 7 7 7 7 7 7 7 7 7 7 7 6 7 7 8 8 8 8 8 8 7 8 8 9 9 9 7 10 15 8 12 15 15 15 15 8 7 8 5 5 5 6 6 4 4 4 5 8 7 6 6 6 5 5 3 3 4 9 10 7
6 4 5 5 5 7 8 8 8 9 8 8 9 9 8 8 9 8 7 7 6 5 5 6 6 7 7 7 6 7 6 6 6 7 7 7 6 6 7 7 7 7 8 8 7 7 7 7 7 7 6 6 7 7 11 8 10 12 11 12 12 9 11 8 6 5 6 6 6 5 5 10 12 10 9 9 8 8 6 3 6 9 10 10 9
7 7 6 7 6 7 8 9 8 7 7 7 7 7 8 8 8 6 6 6 6 6 6 5 5 5 5 6 6 7 7 7 7 6 6 7 7 7 7 6 6 6 6 6 5 6 5 6 5 5 6 5 5 4 5 10 10 12 11 11 11 11 9 6 5 5 5 5 5 6 7 11 12 12 11 9 10 6 4 7 9 10 10 8 6
6 6 5 5 6 7 8 9 8 8 7 6 6 7 8 8 6 4 4 5 5 5 5 7 7 7 5 5 5 5 6 7 8 8 8 8 8 8 7 6 5 5 5 5 5 5 6 5 5 4 5 4 3 5 5 8 11 10 10 12 11 8 8 6 5 3 3 4 7 8 9 9 9 9 10 10 7 4 4 8 10 9 7 4 5
7 6 6 6 7 8 8 9 9 9 7 6 6 7 7 6 6 5 4 4 4 5 4 5 5 6 7 8 8 9 10 9 8 6 7 6 7 7 7 7 7 6 5 5 5 6 5 5 4 4 4 3 4 5 6 6 8 10 9 10 10 9 10 10 8 5 6 9 9 9 9 7 6 4 5 4 4 6 9 8 10 11 6 6 5
8 7 6 6 8 8 8 8 8 8 7 7 7 7 7 6 6 7 7 5 4 4 4 4 5 6 6 6 7 8 8 9 9 8 7 6 6 7 7 7 6 6 6 6 6 6 5 5 5 4 4 4 5 5 5 6 7 6 6 7 6 5 9 8 5 4 7 6 8 7 6 9 8 9 9 9 8 7 4 7 6 7 7 6 6
5 6 7 6 6 7 8 8 7 6 6 7 7 7 7 7 7 7 6 4 4 4 5 5 6 6 5 5 6 10 9 8 8 8 7 6 7 7 7 7 6 6 5 6 6 7 7 6 6 6 4 4 5 5 5 6 6 6 5 5 5 5 6 5 6 6 6 7 7 8 7 5 2 1 1 2 4 5 6 6 6 5 5 6 8
6 6 5 5 5 6 7 7 7 6 6 6 7 7 7 7 6 6 5 5 4 4 4 5 5 3 3 4 4 4 6 7 7 7 6 5 5 5 7 6 5 3 3 4 5 6 6 7 7 7 7 6 6 6 5 3 4 5 5 4 5 5 5 5 6 8 7 6 5 4 5 5 2 2 2 4 4 6 6 6 7 6 6 6 6
7 6 6 6 5 5 6 6 6 6 6 6 6 6 6 7 6 5 5 6 6 6 5 6 5 5 7 4 5 5 5 3 6 6 5 4 7 8 7 4 4 4 5 3 3 4 2 4 4 5 5 5 4 3 5 7 7 6 5 6 8 9 10 8 10 12 4 3 4 3 3 5 6 5 6 6 5 5 6 5 5 5 6 7 7
8 8 7 6 6 5 6 6 5 5 6 6 5 5 5 6 5 5 6 5 5 5 5 6 5 6 7 6 5 4 4 4 4 4 5 6 4 5 10 11 9 6 4 2 6 6 2 3 3 3 2 4 3 1 5 7 8 9 8 9 8 8 10 9 8 4 2 1 6 7 6 7 7 7 8 7 6 5 5 4 5 5 6 7 8
Wind_Direction
168 173 160 163 161 153 156 164 161 159 147 145 147 144 142 141 143 154 152 138 151 158 155 157 160 160 144 149 146 153 156 147 152 165 144 146 148 153 156 145 166 164 175 155 163 121 92 269 318 47 282 119 117 45 276 298 122 273 276 204 267 282 271 272 244 337 10 33 59 306 151 190 168 171 215 231 161 228 158 150 247 175 162 191 179
170 178 164 163 164 155 161 166 165 160 150 156 156 149 149 150 153 154 157 152 159 166 165 151 163 152 157 155 155 142 138 164 138 124 142 141 137 151 160 151 165 157 185 145 177 163 169 213 232 142 219 274 121 186 224 256 281 258 274 222 224 300 311 271 307 23 345 295 173 276 173 202 165 198 214 225 204 8 122 191 245 225 223 172 169
171 178 168 170 163 161 164 168 165 160 156 164 160 154 156 146 153 149 162 163 167 161 171 143 165 157 171 153 152 136 150 149 142 116 153 139 146 161 146 142 162 161 168 179 186 174 99 188 241 177 146 239 224 174 254 210 236 264 252 194 349 356 358 309 48 244 227 258 190 79 265 171 30 319 312 269 120 82 325 329 353 329 352 15 101
178 171 176 170 168 165 164 169 168 160 165 166 164 160 163 138 150 162 157 167 172 144 179 157 159 177 148 99 93 141 138 130 118 134 157 140 152 165 139 152 175 172 176 178 207 133 187 186 248 8 183 131 221 152 235 197 247 278 114 346 84 33 334 300 326 260 330 24 353 295 268 165 112 285 281 7 20 90 125 25 27 304 130 48 359
181 169 180 176 167 172 169 171 169 163 171 168 170 164 169 155 157 164 162 158 170 155 177 158 143 121 94 87 240 125 107 106 139 124 148 148 151 156 150 172 191 173 177 182 183 137 191 122 251 217 175 197 192 202 230 234 209 201 120 295 63 113 310 313 320 12 329 31 332 4 332 32 43 299 21 307 33 322 335 64 207 203 59 65 95
188 178 179 175 173 165 176 169 177 167 179 173 173 168 165 159 161 158 170 153 170 168 168 137 143 137 150 147 150 142 144 147 174 153 165 167 162 154 167 170 191 170 174 184 136 176 186 149 190 280 200 177 255 15 297 318 164 266 179 88 15 308 116 341 335 338 338 325 241 181 172 161 171 283 35 278 300 359 262 232 281 16 70 85 91
190 186 183 171 177 161 181 178 179 174 180 174 175 171 161 160 162 165 167 164 163 158 167 141 156 165 166 157 151 151 158 150 158 158 155 174 154 146 167 167 158 176 190 178 151 190 171 152 206 170 282 232 193 183 226 220 345 31 320 122 82 22 350 105 331 318 338 6 7 352 315 70 130 75 87 339 344 334 332 345 294 34 12 13 341
185 189 190 175 176 173 183 179 182 181 181 175 175 170 153 154 163 163 165 169 158 160 164 160 169 173 175 176 161 158 165 147 172 129 155 222 129 146 171 162 174 165 203 155 167 141 94 239 186 214 204 225 197 201 237 91 87 293 148 60 53 322 340 310 27 306 342 337 2 338 347 350 90 138 80 121 142 330 313 298 8 49 348 17 312
186 184 196 183 178 175 186 171 188 184 181 186 171 161 155 159 161 167 167 170 151 167 160 176 171 177 180 172 159 154 163 153 146 160 156 145 164 157 174 164 167 177 162 170 188 157 155 206 192 187 227 234 222 225 231 156 201 121 75 64 219 235 253 264 61 313 309 126 332 336 302 327 335 67 114 115 93 235 284 323 50 19 8 330 106
199 193 190 200 178 181 184 187 184 178 173 192 169 167 159 158 166 170 165 177 155 166 166 174 175 174 183 183 158 163 170 152 159 168 138 154 135 172 143 156 161 184 160 184 194 181 189 188 198 200 217 216 234 235 210 87 137 172 173 221 235 339 26 331 251 246 12 282 253 217 186 282 282 272 118 104 53 79 256 295 308 75 330 269 273
230 196 191 195 185 185 186 186 188 147 184 175 164 179 158 161 168 174 166 180 157 168 170 175 180 170 189 191 163 175 178 141 161 156 149 170 174 175 172 172 184 172 186 174 197 195 196 203 204 202 218 179 236 248 248 235 213 203 207 200 156 229 216 260 299 272 255 226 254 246 233 223 245 208 69 43 320 169 340 311 315 302 287 308 253
295 306 198 190 184 191 188 193 185 167 159 159 166 163 175 160 170 170 169 180 166 171 177 181 180 179 184 194 173 179 189 155 170 165 180 174 195 184 165 168 208 187 194 175 190 199 196 200 227 214 198 210 197 220 241 178 271 327 296 102 220 192 213 263 294 324 313 323 272 268 294 299 268 4 108 155 198 160 143 277 288 336 321 302 322
294 268 300 196 192 194 197 186 181 158 168 152 171 167 165 168 168 174 173 182 172 173 183 182 184 181 185 185 183 176 205 154 173 175 181 181 189 197 169 175 184 211 198 203 180 202 174 185 214 216 185 214 213 274 328 314 174 206 249 203 229 159 210 225 220 250 264 272 333 348 295 250 250 156 148 193 212 109 99 288 310 303 285 297 295
240 273 272 265 193 201 198 184 174 180 158 173 163 168 178 173 168 178 175 183 174 179 181 186 190 180 187 185 182 180 193 191 174 190 184 183 198 194 189 189 180 206 199 206 198 195 186 181 193 213 198 200 211 191 244 268 285 316 260 239 258 192 226 292 242 265 260 266 251 259 311 324 329 300 176 205 188 111 228 222 252 284 257 280 275
247 235 272 286 234 191 191 184 187 195 177 163 163 161 156 168 167 175 176 182 180 184 181 186 191 187 187 188 184 186 188 200 193 198 181 188 195 196 199 188 189 193 219 175 213 185 193 173 179 195 187 206 187 211 218 208 235 222 297 304 295 302 229 256 271 275 273 289 291 249 193 263 294 320 306 269 272 150 169 176 197 238 283 289 339
222 254 267 311 300 252 202 175 173 221 194 168 159 165 166 183 173 180 179 184 183 184 185 189 186 195 188 192 190 187 183 197 195 195 200 195 195 200 192 214 202 177 192 200 181 225 195 182 171 190 189 186 196 207 219 212 185 211 219 231 244 249 238 222 229 257 278 274 268 276 294 299 295 300 305 327 326 330 141 170 183 187 284 321 300
221 247 270 270 282 311 225 196 199 194 200 176 156 171 177 172 176 180 182 188 184 185 188 188 187 193 191 198 201 188 195 197 198 198 205 203 198 202 190 209 229 184 183 202 193 183 220 225 186 197 184 190 194 191 208 228 212 195 217 216 238 257 267 246 246 277 295 286 281 279 271 265 249 245 280 287 291 14 276 128 18 10 133 129 330
195 277 292 303 317 350 360 285 205 199 196 194 161 177 179 179 181 182 183 187 186 187 190 189 191 192 193 201 205 207 200 202 202 196 206 209 205 188 209 191 213 224 211 192 192 175 198 206 225 219 185 191 206 202 197 210 204 211 228 209 222 234 263 274 272 271 263 267 284 286 280 276 294 332 281 282 313 288 282 260 200 149 134 150 166
300 314 27 12 340 359 345 334 23 6 16 273 218 167 178 184 182 186 184 188 187 189 189 192 191 195 198 199 203 210 211 205 209 198 196 212 211 191 212 207 197 216 228 252 174 190 178 193 210 217 231 195 188 213 191 196 201 206 223 224 214 210 220 244 240 234 250 259 277 289 294 261 262 285 307 287 279 309 299 319 298 138 160 148 169
309 241 86 81 58 52 58 5 22 47 337 215 239 34 3 220 183 179 191 186 193 190 190 196 192 198 199 194 202 210 214 215 214 210 203 208 214 206 202 217 207 202 211 212 233 210 187 193 200 214 218 214 206 204 213 197 201 209 217 226 222 195 200 213 234 240 254 248 232 233 227 261 282 280 270 274 278 270 253 243 228 190 167 167 170
337 337 30 51 69 52 40 12 345 12 359 60 32 77 116 64 299 272 189 186 194 200 189 193 195 201 198 194 200 205 211 217 219 214 216 208 205 215 208 210 209 210 203 199 203 230 229 193 198 202 219 212 200 205 199 206 194 200 217 249 277 236 188 207 217 245 261 285 313 301 296 302 297 284 283 287 287 280 272 248 216 187 206 160 172
38 300 4 2 6 31 35 17 358 307 243 92 130 125 117 90 130 189 242 206 195 197 200 191 201 200 203 206 204 197 207 213 220 216 215 216 211 204 218 207 211 208 211 207 196 208 222 235 217 204 206 222 199 195 206 212 199 193 208 224 228 241 198 204 230 239 241 254 255 256 273 263 248 246 255 267 276 275 269 275 265 252 159 150 175
13 355 1 337 358 13 22 21 7 355 1 108 84 60 33 13 92 77 29 346 2 318 242 195 198 194 206 217 218 206 205 213 216 220 219 219 215 213 206 218 218 216 206 217 213 211 201 210 229 229 207 212 210 191 202 218 219 199 204 223 236 216 204 215 220 218 230 236 243 250 255 249 254 263 253 253 259 263 284 324 329 330 324 340 158
103 321 328 45 29 355 358 16 14 9 348 14 110 57 34 38 22 33 82 50 49 41 309 313 354 334 259 227 213 227 229 219 221 221 221 222 227 220 210 214 219 221 216 204 217 221 206 201 209 222 231 236 219 220 204 204 220 230 210 211 227 255 250 216 221 234 239 234 247 261 263 271 279 280 289 280 292 303 314 320 308 323 351 348 7
111 177 48 177 126 94 26 343 24 23 10 6 40 336 49 31 25 18 55 164 180 159 196 330 104 136 65 24 342 309 259 247 242 233 239 238 227 226 222 218 222 222 233 223 199 217 220 199 213 211 216 227 228 217 227 221 216 220 224 225 225 222 239 254 246 234 238 243 253 253 258 265 278 285 297 339 314 303 335 353 1 343 19 347 326
46 35 4 15 48 98 68 36 16 33 30 22 17 47 129 168 131 232 218 202 219 104 148 210 204 132 113 98 149 307 323 352 336 323 318 324 300 249 223 220 224 233 241 247 196 207 225 223 216 221 215 214 222 228 222 224 231 234 221 223 224 226 229 227 242 247 251 262 256 274 298 300 282 286 298 230 278 357 21 348 284 317 331 281 14
36 29 32 41 48 55 60 48 28 4 46 28 24 24 17 30 147 187 174 149 142 142 143 83 117 147 116 157 179 174 191 225 202 189 269 312 314 313 286 237 218 211 221 223 230 216 190 232 224 233 235 227 214 222 226 227 228 236 245 238 231 223 220 218 223 226 240 238 241 235 229 240 272 266 251 318 14 14 215 211 237 228 11 42 63
61 55 28 23 31 35 34 35 30 52 19 38 50 27 9 18 32 34 41 31 50 106 116 104 98 115 180 181 225 231 188 202 232 203 173 78 10 328 327 319 297 245 224 234 235 233 218 172 207 241 235 250 255 239 231 238 240 240 249 254 250 252 231 219 210 223 233 240 241 256 238 219 242 243 234 90 44 178 229 261 14 61 69 77 1
60 61 78 50 44 23 26 22 23 8 18 33 90 114 92 328 29 9 19 31 26 33 49 57 69 43 132 169 253 284 299 247 223 181 158 169 150 87 331 328 321 321 284 274 223 263 258 236 185 175 194 221 233 243 252 277 252 248 264 281 271 248 244 243 240 240 230 228 223 222 109 73 275 252 245 196 189 33 67 154 175 164 147 194 206
40 45 56 56 51 43 36 39 10 10 6 4 17 9 15 328 328 358 357 21 18 31 23 8 341 14 4 39 268 283 284 316 349 10 348 342 39 78 163 251 299 299 306 286 350 288 314 214 205 214 218 226 49 24 27 342 312 357 84 258 292 303 307 351 354 339 325 336 315 347 98 161 200 255 262 186 186 174 185 206 194 246 260 238 235
18 30 34 49 57 49 49 42 28 28 31 19 19 18 3 19 42 3 7 1 350 339 356 268 293 296 335 320 329 326 328 319 328 337 2 8 343 9 185 199 224 283 323 324 303 281 279 284 270 257 218 113 181 148 332 331 302 128 153 194 210 336 333 330 5 8 280 307 308 71 199 222 224 246 241 179 194 192 193 215 243 252 257 260 255
26 33 20 34 44 43 39 34 33 28 31 19 22 28 25 29 38 32 38 40 30 1 311 307 296 306 341 322 314 310 314 317 317 326 343 331 124 291 323 298 277 271 242 269 292 287 268 257 270 270 185 154 198 164 164 204 224 87 107 163 130 216 180 111 106 311 325 301 307 258 239 215 208 183 155 185 185 210 223 229 231 233 239 251 260
29 25 35 29 38 44 38 38 34 30 26 38 35 53 48 39 48 50 59 64 66 50 47 55 35 24 3 347 317 295 296 306 322 323 327 332 337 344 109 326 288 302 332 324 308 296 282 270 258 265 160 156 172 170 197 215 228 208 170 177 204 133 70 174 205 196 264 273 256 278 270 245 205 172 186 194 201 232 248 247 239 239 243 244 250
66 16 52 50 35 45 51 44 39 28 33 47 52 55 53 49 57 60 60 61 61 50 42 41 33 32 341 302 296 305 314 332 330 332 338 334 337 353 349 327 311 316 307 293 317 307 298 297 298 287 288 187 150 143 182 201 211 203 167 228 218 230 185 166 195 208 229 246 255 263 269 249 243 204 173 192 207 214 235 247 238 233 243 256 252
71 36 30 48 45 55 61 59 39 29 36 44 57 66 58 51 48 55 50 53 56 62 53 38 32 19 6 358 359 8 3 6 3 8 10 351 330 327 343 348 298 288 267 269 263 258 261 277 291 280 223 189 63 26 18 52 359 26 54 283 263 241 221 201 211 203 205 225 236 241 247 264 255 247 277 238 189 207 215 235 251 262 254 254 250
73 56 25 28 27 35 70 77 58 44 46 42 45 47 58 58 52 49 47 45 47 48 45 35 27 19 19 14 24 40 42 40 35 37 39 38 30 23 317 267 292 289 292 258 251 250 266 265 256 265 253 67 47 26 37 55 62 41 354 258 242 231 238 242 233 243 232 225 252 273 271 343 333 303 47 46 20 317 277 268 261 256 244 230 234
76 67 77 27 17 17 46 73 69 62 47 49 47 53 53 50 44 45 42 39 42 42 42 42 38 23 24 32 42 46 49 45 43 36 34 28 20 12 12 4 345 316 294 295 275 277 267 257 244 226 90 85 76 13 13 26 32 23 270 233 273 276 267 259 256 269 9 3 338 329 338 360 326 311 18 34 22 349 297 276 273 273 273 270 269
63 60 141 142 327 29 48 61 73 63 50 38 48 71 65 57 51 37 35 43 45 43 37 39 43 44 39 38 44 50 53 52 43 44 41 33 29 22 36 30 42 6 327 297 276 270 271 268 276 229 91 142 75 28 20 20 19 5 341 3 315 287 280 359 356 6 357 350 5 10 350 328 294 330 21 34 11 356 289 280 275 272 275 276 276
96 40 21 164 202 133 107 87 74 72 68 59 37 41 71 76 74 70 59 54 47 43 31 23 31 36 41 41 44 50 52 45 39 29 25 29 27 26 21 37 55 44 29 14 358 319 264 259 261 187 203 128 90 50 36 37 31 22 8 349 11 40 48 291 275 280 204 162 106 353 43 46 54 64 41 30 23 12 343 318 305 291 282 279 278
96 113 232 249 172 167 111 72 75 86 82 68 66 63 62 66 69 68 62 53 47 47 50 47 43 42 45 49 46 54 50 42 42 38 29 22 15 20 16 24 40 45 46 40 28 42 18 42 43 42 40 38 51 45 39 36 38 32 23 17 16 26 23 4 349 347 332 135 117 122 87 64 45 36 35 33 23 5 354 326 321 308 303 290 339
94 167 171 21 10 66 78 82 100 88 75 72 65 64 64 66 66 57 56 57 48 41 43 41 48 49 49 52 55 55 48 41 38 37 31 26 18 21 22 26 32 46 64 55 49 32 23 35 42 51 56 38 34 37 38 36 34 34 32 36 50 35 8 348 345 325 305 46 99 116 114 62 41 24 23 9 342 335 315 305 282 273 289 327 330
55 5 20 54 75 39 52 65 64 75 87 79 67 61 55 51 55 63 58 54 58 61 49 44 43 44 47 48 52 50 57 56 43 38 42 33 28 32 32 32 40 50 56 59 49 44 47 49 45 46 47 51 42 30 21 36 38 32 27 34 46 32 358 346 357 357 355 16 33 94 84 24 5 16 1 357 333 320 301 277 293 296 309 310 301
165 147 122 104 69 73 72 74 65 55 60 66 68 64 60 55 48 37 49 51 48 43 52 58 53 49 42 42 44 55 60 58 60 58 49 40 33 39 44 43 44 49 56 53 56 49 46 46 47 41 47 48 41 39 18 26 41 42 34 30 35 34 5 3 2 357 2 358 17 19 359 359 347 350 351 338 332 322 301 277 307 301 295 295 292
73 69 74 82 94 101 92 75 66 69 71 64 64 70 70 65 54 39 34 38 45 43 34 42 61 75 69 56 50 46 51 55 50 51 52 47 39 37 37 40 50 58 58 61 68 67 56 52 47 46 39 31 35 28 11 26 30 31 31 26 26 16 7 352 347 357 356 352 344 350 339 332 329 327 325 318 306 300 273 288 290 288 288 283 282
88 85 78 91 102 101 95 92 89 80 70 66 57 67 77 76 70 71 51 39 37 45 57 55 37 34 50 64 69 69 63 65 64 49 42 37 35 27 29 23 40 47 60 66 62 71 74 68 56 50 37 29 15 25 19 19 25 26 27 15 9 357 336 336 331 331 325 322 306 302 304 306 302 302 299 294 284 273 324 322 318 317 316 288 286
116 100 84 77 63 64 75 85 96 101 93 81 70 52 50 73 81 62 67 84 55 38 46 56 73 63 42 44 47 47 39 37 49 58 60 55 47 38 29 17 13 26 38 49 60 58 57 58 69 63 58 53 35 29 23 17 16 13 15 4 352 341 345 343 326 278 285 292 297 308 307 297 295 291 302 309 348 335 311 337 358 5 350 341 331
115 122 123 102 97 89 79 68 55 50 68 80 74 66 52 36 48 76 57 25 43 76 54 47 46 51 71 67 58 57 57 48 41 38 36 39 52 54 41 32 27 10 17 34 37 42 40 44 43 35 41 39 46 41 23 12 16 5 358 349 344 352 350 346 341 349 343 325 312 322 309 289 274 277 274 274 276 294 355 18 8 10 354 353 355
93 95 89 88 82 84 87 85 78 67 55 57 68 74 66 55 52 48 56 68 45 19 56 65 62 57 43 56 69 84 80 68 54 42 34 34 44 52 48 41 23 12 5 11 27 35 29 31 27 14 16 30 32 49 28 9 356 354 343 338 348 348 351 340 328 336 335 314 305 306 303 292 291 280 354 71 64 49 33 24 13 2 8 7 24
114 99 95 88 92 94 95 92 87 85 79 68 64 62 70 66 53 49 32 30 21 75 59 34 34 48 100 82 55 70 95 97 84 72 55 28 12 36 69 64 43 22 8 20 21 38 22 17 47 25 22 17 19 13 13 351 317 312 304 329 341 342 328 310 303 324 322 306 309 302 313 306 325 64 55 46 51 48 42 34 26 14 23 22 23
117 116 110 110 111 113 107 101 99 96 88 85 76 66 60 64 64 54 43 33 21 1 70 62 34 28 15 33 87 64 28 53 107 110 103 69 39 29 8 68 97 65 66 39 33 64 5 347 35 58 32 36 2 354 333 329 306 304 283 253 262 274 279 274 291 299 285 313 294 309 5 28 43 48 43 45 46 48 47 39 34 30 33 34 31
142 137 133 126 116 107 103 103 104 100 99 91 80 80 82 69 56 62 49 39 22 18 26 60 57 34 12 354 35 59 107 50 27 89 130 126 122 57 37 36 58 75 47 44 109 122 87 12 29 71 87 92 95 328 329 322 321 316 314 309 302 293 295 298 305 304 229 1 22 34 34 40 42 38 37 32 33 45 51 47 43 39 41 41 40